Tracking 27419 objects as of 10-Jun-2023
HD Live streaming from Space Station
objects crossing your sky now

STARLINK-5119

Track STARLINK-5119 now!
10-day predictions
STARLINK-5119 is classified as:


NORAD ID: 53986
Int'l Code: 2022-125Y
Perigee: 546.1 km
Apogee: 547.6 km
Inclination: 53.2 °
Period: 95.4 minutes
Semi major axis: 6917 km
RCS: Unknown
Launch date: October 5, 2022
Source: United States (US)
Launch site: AIR FORCE WESTERN TEST RANGE (AFWTR)
Your satellite tracking list
Your tracking list is empty




NASA's NSSDC Master Catalog

Two Line Element Set (TLE):
1 53986U 22125Y   23160.92870327  .00000433  00000-0  45311-4 0  9991
2 53986  53.2168  29.8596 0001092  95.4270 264.6847 15.08840038 38067
Source of the keplerian elements: AFSPC